Hourly Data Report for August 12, 2021

KUGLUKTUK A
NUNAVUT
Current Station Operator: NAVCAN

67°49'00.000" N
115°08'38.000" W
22.60 m
2300903
71938
YCO

Download Data

Hourly Data (August 2021)
Hourly Data Report for August 12, 2021
TIME
LST
Temp Definition
°C
Dew Point Definition
°C
Rel Hum Definition
%
Precip. Amount Definition
mm

Wind Dir Definition
10's deg

Wind Spd Definition
km/h
Visibility Definition
km
Stn Press Definition
kPa
Hmdx Definition


Wind Chill Definition


Weather Definition


00:00 3.2 2.0 92   21 9 24.1 101.06     LegendNANA
01:00 3.5 1.1 85   33 5 24.1 101.07     LegendNANA
02:00 3.9 1.7 85   29 8 24.1 101.09     Mainly Clear
03:00 1.4 0.3 92   17 3 24.1 101.12     LegendNANA
04:00 1.7 0.9 95   23 8 24.1 101.15     LegendNANA
05:00 1.5 0.7 94   22 12 24.1 101.16     Mostly Cloudy
06:00 3.0 2.0 93   21 12 24.1 101.16     LegendNANA
07:00 5.5 3.4 86   28 3 24.1 101.17     LegendNANA
08:00 6.4 3.8 83   32 4 24.1 101.16     Mainly Clear
09:00 8.5 3.0 68   36 1 24.1 101.14     LegendNANA
10:00 10.2 4.7 69   1 4 24.1 101.12     LegendNANA
11:00 11.1 3.6 60   8 8 24.1 101.12     Mainly Clear
12:00 11.2 3.1 57   6 14 24.1 101.09     LegendNANA
13:00 10.9 2.7 57   9 19 24.1 101.07     LegendNANA
14:00 12.2 3.3 54   7 17 24.1 101.01     Clear
15:00 12.3 3.3 54   8 20 24.1 100.98     LegendNANA
16:00 12.3 3.6 55   8 22 24.1 100.96     LegendNANA
17:00 11.9 4.0 58   9 22 24.1 100.90     Clear
18:00 11.2 3.8 60   9 22 24.1 100.85     LegendNANA
19:00 10.1 4.0 65   9 20 24.1 100.82     LegendNANA
20:00 9.6 3.7 67   10 21 24.1 100.76     Mostly Cloudy
21:00 8.2 4.5 77   11 18 24.1 100.72     LegendNANA
22:00 7.6 4.2 79   10 18 24.1 100.69     LegendNANA
23:00 6.6 4.1 84   10 19 24.1 100.65     Mostly Cloudy

Notes on Data Quality.

Legend

  • E = Estimated
  • M = Missing
  • NA = Not Available*
  • [empty] = Indicates an unobserved value
Date modified: